This is the latest recevied weather packets stored in our database for station/object KN6DHD. If no packets are shown the sender has not sent any weather packets the latest 10 day(s).
| Time | Temp. | Humidity | Pressure | Rain* | Wind** | Luminosity | Snow |
|---|---|---|---|---|---|---|---|
| 1777689927 | 23.33° C | 63% | 1011 hPa | 0 mm | - | 4 W/m² | - |
| 1777689626 | 23.33° C | 63% | 1010.7 hPa | 0 mm | - | 5 W/m² | - |
| 1777689323 | 23.33° C | 62% | 1010.9 hPa | 0 mm | - | 6 W/m² | - |
| 1777689020 | 23.89° C | 61% | 1010.6 hPa | 0 mm | - | 9 W/m² | - |
| 1777688717 | 23.89° C | 59% | 1010.7 hPa | 0 mm | - | 12 W/m² | - |
| 1777688415 | 23.89° C | 58% | 1010.5 hPa | 0 mm | - | 14 W/m² | - |
| 1777688112 | 24.44° C | 58% | 1010.5 hPa | 0 mm | - | 16 W/m² | - |
| 1777687808 | 24.44° C | 58% | 1010.5 hPa | 0 mm | - | 19 W/m² | - |
| 1777687506 | 25° C | 57% | 1010.6 hPa | 0 mm | - | 21 W/m² | - |
| 1777687203 | 25° C | 56% | 1010.7 hPa | 0 mm | - | 26 W/m² | - |
| 1777686900 | 25° C | 54% | 1010.6 hPa | 0 mm | - | 30 W/m² | - |
| 1777686591 | 25° C | 53% | 1010.6 hPa | 0 mm | - | 32 W/m² | - |
| 1777686288 | 25° C | 52% | 1010.6 hPa | 0 mm | - | 35 W/m² | - |
| 1777685985 | 25.56° C | 51% | 1010.7 hPa | 0 mm | - | 41 W/m² | - |
| 1777685680 | 25.56° C | 50% | 1010.8 hPa | 0 mm | - | 46 W/m² | - |
| 1777685377 | 25.56° C | 49% | 1010.7 hPa | 0 mm | - | 48 W/m² | - |
| 1777685075 | 25.56° C | 52% | 1010.8 hPa | 0 mm | - | 53 W/m² | - |
| 1777684772 | 25.56° C | 52% | 1010.7 hPa | 0 mm | - | 53 W/m² | - |
| 1777684468 | 25.56° C | 53% | 1010.7 hPa | 0 mm | - | 54 W/m² | - |
| 1777684165 | 25.56° C | 54% | 1010.8 hPa | 0 mm | - | 62 W/m² | - |
| 1777683861 | 26.67° C | 52% | 1010.9 hPa | 0 mm | - | 78 W/m² | - |
| 1777683558 | 26.67° C | 53% | 1010.7 hPa | 0 mm | - | 88 W/m² | - |
| 1777683256 | 26.67° C | 53% | 1010.8 hPa | 0 mm | - | 95 W/m² | - |
| 1777682954 | 27.22° C | 52% | 1010.8 hPa | 0 mm | - | 112 W/m² | - |
| 1777682650 | 26.67° C | 51% | 1011 hPa | 0 mm | - | 125 W/m² | - |
* Rain latest hour (hover to see other rain measurements)
** Current wind speed in m/s (hover to see current wind gust speed)